Meteopurmerend
purmerend
Purmerend - Baaienwijk



My webcam  My webcam


waarschuwing voor Onweer Meer informatie blitzortung!


Regen radar Meer informatie rain snow radar


Bezoek onze andere website:

CandyAppleRed WebdesignWebdesign Purmerend Candy Apple Red

MeteopurmerendBlog

Template documentation
and downloads



Onweer van: 26-07-2021 13:00 tot: 21:00 waarschuwing voor: Onweer niveau: Geel info button
Enkele onweersbuien, lokaal met hagel en veel neerslag in korte tijd.Kans op blikseminslag, hagel en veel neerslag in korte tijd.Verkeer en buitenactiviteiten kunnen hinder ondervinden.Mijd open water en open gebied, schuil niet onder bomen.Volg weerberichten en waarschuwingen.

15 daagse weersverwachting Hämeenlinna (FI)

  • Overzicht
  • Per uur
  • 15 dagen
  • Extra
  • Vergelijk
  • Kaarten
  • Dagkaart
  • Meer »
  • Info
  • Statistieken
  • Directe link
    Temp 6h Neerslag Wind  
 04:45     22:14    Daglengte: 17:29 Vandaag
21:00
26°
 
1
 04:48     22:12    Daglengte: 17:24 Morgen
03:00
17°
 
1
09:00
22°
 
1
15:00
30°
 
3
21:00
25°
 
2
 04:50     22:09    Daglengte: 17:19 Woensdag 28 Jul
03:00
18°
 
2
09:00
23°
 
2
15:00
23°
 
4
21:00
19°
3.3 mm
3
 04:53     22:06    Daglengte: 17:13 Donderdag 29 Jul
03:00
18°
9.9 mm
3
warningclass
09:00
19°
9.8 mm
3
15:00
23°
8.3 mm
4
Locatie info
Region: Kanta-Häme
Latitude: 60.9969°N
Longitude: 24.4663°E
83 masl
Postcode: 13100
Temp/Neerslag /Baro Onweer/Dauwpunt
    Temp Baro 1h Neerslag Dauwpunt Wind UV Bewolking  
 04:45     22:14    Daglengte: 17:29 Vandaag
17:00
29°
Voelt als: 28.0°
1018.8 hPa   9.0°
1
Windvlaag: -4 m/s
17%
18:00
29°
Voelt als: 27.8°
1018.6 hPa   8.8°
2
Windvlaag: -4.1 m/s
13%
19:00
29°
Voelt als: 27.6°
1018.3 hPa   9.7°
2
Windvlaag: -3.9 m/s
21%
20:00
27°
Voelt als: 27.3°
1018.3 hPa   12.9°
1
Windvlaag: -3 m/s
57%
21:00
26°
1018.5 hPa   16.4°
1
Windvlaag: -0.6 m/s
13%
22:00
24°
1018.9 hPa   16.5°
2
Windvlaag: 4.8 m/s
21%
23:00
22°
1019.1 hPa   17.3°
2
Windvlaag: 5.9 m/s
5%
 04:48     22:12    Daglengte: 17:24 Morgen
00:00
21°
1019.4 hPa   18.2°
1
Windvlaag: 3.2 m/s
2%
01:00
19°
1019.6 hPa   18.3°
1
Windvlaag: 1.7 m/s
1%
02:00
18°
1019.5 hPa   16.9°
1
Windvlaag: 0.9 m/s
1%
03:00
17°
1019.5 hPa   16.0°
1
Windvlaag: 0.6 m/s
1%
04:00
16°
1019.5 hPa   15.0°
1
Windvlaag: 0.5 m/s
4%
05:00
16°
1019.4 hPa   14.4°
1
Windvlaag: 0.6 m/s
8%
06:00
16°
1019.3 hPa   14.8°
1
Windvlaag: 0.5 m/s
12%
07:00
18°
1019.1 hPa   16.6°
1
Windvlaag: 1.5 m/s
25%
08:00
20°
1018.9 hPa   18.4°
1
Windvlaag: 2.7 m/s
30%
09:00
22°
1018.8 hPa   16.5°
1
Windvlaag: 2.3 m/s
39%
10:00
25°
1018.6 hPa   14.3°
2
Windvlaag: 2.3 m/s
46%
11:00
27°
Voelt als: 26.9°
1018.3 hPa   13.1°
2
Windvlaag: 2.5 m/s
46%
12:00
28°
Voelt als: 27.5°
1017.9 hPa   11.7°
2
Windvlaag: 3.3 m/s
37%
13:00
29°
Voelt als: 28.0°
1017.4 hPa   11.1°
3
Windvlaag: 3.9 m/s
47%
14:00
30°
Voelt als: 28.4°
1016.9 hPa   10.5°
3
Windvlaag: 4.5 m/s
16%
15:00
30°
Voelt als: 28.5°
1016.3 hPa   9.9°
3
Windvlaag: 5.7 m/s
13%
16:00
30°
Voelt als: 28.4°
1015.7 hPa   8.8°
3
Windvlaag: 6.2 m/s
14%
17:00
30°
Voelt als: 28.4°
1015.1 hPa   8.9°
3
Windvlaag: 6.3 m/s
13%
18:00
29°
Voelt als: 28.1°
1014.7 hPa   9.1°
3
Windvlaag: 5.5 m/s
13%
19:00
29°
Voelt als: 27.7°
1014.2 hPa   9.9°
3
Windvlaag: 6.3 m/s
10%
20:00
27°
Voelt als: 27.0°
1014.0 hPa   12.5°
3
Windvlaag: 6.4 m/s
12%
21:00
25°
1014.0 hPa   16.5°
2
Windvlaag: 6.6 m/s
14%
22:00
23°
1013.9 hPa   19.1°
2
Windvlaag: 5.4 m/s
14%
23:00
21°
1013.7 hPa   18.5°
2
Windvlaag: 4 m/s
14%
 04:50     22:09    Daglengte: 17:19 Woensdag 28 Jul
00:00
19°
1013.4 hPa   17.7°
2
Windvlaag: 2.6 m/s
15%
01:00
19°
1013.1 hPa   17.2°
2
Windvlaag: 1.8 m/s
35%
02:00
18°
1012.5 hPa   16.8°
2
Windvlaag: 1.9 m/s
44%
03:00
18°
1011.9 hPa   17.2°
2
Windvlaag: 1.5 m/s
42%
04:00
18°
1011.3 hPa   16.9°
2
Windvlaag: 2.1 m/s
12%
05:00
18°
1011.0 hPa   16.7°
2
Windvlaag: 1.8 m/s
17%
06:00
18°
1010.6 hPa   16.9°
2
Windvlaag: 2.3 m/s
19%
07:00
20°
1010.1 hPa   17.4°
2
Windvlaag: 2.2 m/s
19%
08:00
21°
1009.5 hPa   17.7°
2
Windvlaag: 2.5 m/s
18%
09:00
23°
1009.0 hPa   16.6°
2
Windvlaag: 2.2 m/s
50%
10:00
25°
1008.5 hPa   16.2°
3
Windvlaag: 3.3 m/s
54%
11:00
26°
1008.2 hPa   15.3°
4
Windvlaag: 4.9 m/s
75%
12:00
26°
1007.4 hPa
15%
16.1°
5
Windvlaag: 4.8 m/s
95%
13:00
25°
1007.2 hPa
42%
15.6°
5
Windvlaag: 2.5 m/s
99%
14:00
24°
1006.8 hPa
84%
14.7°
5
Windvlaag: 2.6 m/s
100%
15:00
23°
1006.3 hPa
97%
14.9°
4
Windvlaag: 1.3 m/s
100%
16:00
22°
1005.9 hPa 0.7 mm
97%
14.5°
3
Windvlaag: 1 m/s
99% warningclass
17:00
21°
1005.3 hPa 0.3 mm
97%
17.1°
4
Windvlaag: -0.2 m/s
98% warningclass
18:00
21°
1005.0 hPa 0.2 mm
99%
16.1°
4
Windvlaag: -1.5 m/s
98% warningclass
19:00
20°
1004.6 hPa 0.3 mm
100%
15.5°
3
Windvlaag: -1.7 m/s
98% warningclass
20:00
20°
1004.2 hPa 0.8 mm
100%
14.9°
3
Windvlaag: -2.5 m/s
100% warningclass
21:00
19°
1003.8 hPa 1.0 mm
88%
16.6°
3
Windvlaag: -2.1 m/s
100%
22:00
19°
1003.4 hPa 0.5 mm
32%
17.6°
2
Windvlaag: -1.6 m/s
89%
23:00
19°
1003.5 hPa 0.7 mm
35%
18.0°
2
Windvlaag: -2.4 m/s
97% warningclass
 04:53     22:06    Daglengte: 17:13 Donderdag 29 Jul
00:00
19°
1003.3 hPa 1.2 mm
33%
18.4°
2
Windvlaag: -2.2 m/s
96% warningclass
01:00
19°
1002.9 hPa 1.9 mm
27%
18.5°
2
Windvlaag: -2.1 m/s
91% warningclass
02:00
18°
1002.3 hPa 3.6 mm
26%
18.4°
3
Windvlaag: -2.6 m/s
93% warningclass
03:00
18°
1002.0 hPa 1.9 mm
27%
18.4°
3
Windvlaag: -2.5 m/s
79% warningclass
04:00
18°
1001.6 hPa 1.4 mm
27%
18.0°
3
Windvlaag: -2.5 m/s
78% warningclass
05:00
18°
1001.2 hPa 2.4 mm
22%
17.9°
3
Windvlaag: -2.6 m/s
84%
06:00
18°
1000.8 hPa 2.4 mm
21%
17.9°
3
Windvlaag: -3 m/s
91%
07:00
18°
1000.8 hPa 1.2 mm
21%
17.8°
3
Windvlaag: -2.4 m/s
83%
08:00
18°
1000.6 hPa 1.3 mm
24%
18.2°
3
Windvlaag: 0.2 m/s
88%
09:00
19°
1000.3 hPa 1.2 mm
96%
18.3°
3
Windvlaag: 0.2 m/s
97%
10:00
20°
1000.0 hPa 1.2 mm
100%
17.8°
3
Windvlaag: 7.6 m/s
95%
11:00
21°
999.7 hPa
100%
16.6°
4
Windvlaag: 7.6 m/s
92%
12:00
21°
999.3 hPa 1.2 mm
100%
15.8°
4
Windvlaag: 6.1 m/s
67% warningclass
13:00
22°
998.7 hPa
100%
15.5°
4
Windvlaag: 6.7 m/s
62%
14:00
23°
998.2 hPa
100%
16.5°
4
Windvlaag: 7.1 m/s
20%
15:00
23°
997.8 hPa
100%
14.9°
4
Windvlaag: 6.9 m/s
61%
Temp/Neerslag /Baro Onweer/Dauwpunt
    Temp Baro Neerslag Dauwpunt Wind Bewolking  
 04:45     22:14    Daglengte: 17:29 Vandaag
18:00
29°
Voelt als: 27.8°
1018.6 hPa   8.8°
2
13%
21:00
26°
1018.5 hPa   16.4°
1
13%
 04:48     22:12    Daglengte: 17:24 Morgen
00:00
21°
1019.4 hPa   18.2°
1
2%
03:00
17°
1019.5 hPa   16.0°
1
1%
06:00
16°
1019.3 hPa   14.8°
1
12%
09:00
22°
1018.8 hPa   16.5°
1
39%
12:00
28°
Voelt als: 27.5°
1017.9 hPa   11.7°
2
37%
15:00
30°
Voelt als: 28.5°
1016.3 hPa   9.9°
3
13%
18:00
29°
Voelt als: 28.1°
1014.7 hPa   9.1°
3
13%
21:00
25°
1014.0 hPa   16.5°
2
14%
 04:50     22:09    Daglengte: 17:19 Woensdag 28 Jul
00:00
19°
1013.4 hPa   17.7°
2
15%
03:00
18°
1011.9 hPa   17.2°
2
42%
06:00
18°
1010.6 hPa   16.9°
2
19%
09:00
23°
1009.0 hPa   16.6°
2
50%
12:00
26°
1007.4 hPa   16.1°
5
95%
15:00
23°
1006.3 hPa   14.9°
4
100%
18:00
21°
1005.0 hPa 1.1 mm 16.1°
4
98% warningclass
21:00
19°
1003.8 hPa 2.1 mm 16.6°
3
100%
 04:53     22:06    Daglengte: 17:13 Donderdag 29 Jul
00:00
19°
1003.3 hPa 2.4 mm 18.4°
2
96% warningclass
03:00
18°
1002.0 hPa 7.5 mm 18.4°
3
79% warningclass
06:00
18°
1000.8 hPa 6.1 mm 17.9°
3
91%
09:00
19°
1000.3 hPa 3.7 mm 18.3°
3
97%
12:00
21°
999.3 hPa 2.4 mm 15.8°
4
67% warningclass
15:00
23°
997.8 hPa 4.8 mm 14.9°
4
61%
18:00
22°
998.9 hPa 11.0 mm 16.9°
3
0%
21:00
20°
998.4 hPa 11.1 mm 13.8°
4
0%
 04:55     22:04    Daglengte: 17:09 Vrijdag 30 Jul
00:00
17°
997.5 hPa 11.1 mm 14.0°
3
1%
03:00
15°
996.2 hPa 12.4 mm 13.9°
4
1%
06:00
13°
995.5 hPa 12.5 mm 12.8°
3
0%
09:00
16°
994.0 hPa 13.1 mm 13.9°
4
0%
12:00
17°
991.8 hPa 15.4 mm 14.7°
6
1%
15:00
19°
990.9 hPa 16.8 mm 10.8°
6
1%
18:00
14°
989.9 hPa 19.9 mm 13.1°
3
1%
21:00
14°
988.4 hPa 22.5 mm 12.7°
1
1%
 04:57     22:01    Daglengte: 17:04 Zaterdag 31 Jul
00:00
13°
988.8 hPa 31.8 mm 12.6°
4
1%
03:00
13°
990.6 hPa 37.8 mm 12.4°
5
1%
06:00
12°
992.6 hPa 37.8 mm 11.0°
4
1%
09:00
16°
993.8 hPa 37.8 mm 11.3°
4
1%
12:00
21°
994.9 hPa 37.8 mm 9.6°
4
0%
15:00
23°
995.6 hPa 37.8 mm 9.1°
4
0%
18:00
22°
996.9 hPa 37.8 mm 11.2°
2
1%
21:00
18°
998.3 hPa 37.8 mm 12.5°
3
1%
 05:00     21:59    Daglengte: 16:59 Zondag 01 Aug
00:00
13°
1000.0 hPa 37.8 mm 12.2°
2
0%
03:00
12°
1000.6 hPa 37.8 mm 11.4°
2
1%
06:00
12°
1000.6 hPa 37.8 mm 11.4°
2
1%
09:00
18°
999.7 hPa 37.8 mm 12.8°
3
1%
12:00
21°
998.7 hPa 37.9 mm 12.2°
4
1%
15:00
15°
998.4 hPa 40.1 mm 14.5°
2
1%
18:00
16°
996.3 hPa 58.7 mm 15.2°
2
1%
21:00
15°
996.2 hPa 59.9 mm 14.5°
5
1%
 05:02     21:56    Daglengte: 16:54 Maandag 02 Aug
00:00
15°
997.4 hPa 60.1 mm 13.9°
5
1%
03:00
14°
998.3 hPa 60.2 mm 13.2°
3
1%
06:00
13°
999.0 hPa 60.2 mm 12.4°
2
1%
09:00
17°
999.1 hPa 60.2 mm 13.7°
3
1%
12:00
20°
999.0 hPa 60.2 mm 10.8°
3
1%
15:00
20°
998.5 hPa 121.1 mm 13.2°
3
1%
21:00
15°
997.4 hPa 124.9 mm 13.6°
2
1%
 05:05     21:53    Daglengte: 16:48 Dinsdag 03 Aug
03:00
11°
997.0 hPa 125.7 mm 10.5°
2
1%
09:00
16°
996.7 hPa 125.7 mm 13.0°
3
0%
15:00
19°
999.6 hPa 126.3 mm 5.8°
5
1%
21:00
14°
1001.2 hPa 126.5 mm 9.1°
2
1%
 05:07     21:51    Daglengte: 16:44 Woensdag 04 Aug
03:00
10°
1001.8 hPa 127.1 mm 9.0°
5
0%
09:00
14°
1003.9 hPa 127.1 mm 7.3°
4
1%
15:00
19°
1003.9 hPa 129.5 mm 6.8°
6
1%
21:00
14°
1005.7 hPa 130.2 mm 8.0°
3
0%
 05:10     21:48    Daglengte: 16:38 Donderdag 05 Aug
03:00
13°
1004.1 hPa 131.2 mm 13.0°
2
1%
09:00
16°
1001.8 hPa 153.4 mm 15.6°
3
1%
15:00
19°
1008.5 hPa 2.4 mm 11.4°
1
65%
21:00
16°
1008.4 hPa 1.4 mm 11.5°
1
71%
 05:13     21:45    Daglengte: 16:32 Vrijdag 06 Aug
03:00
12°
1008.9 hPa 0.4 mm 10.2°
1
61%
09:00
16°
1008.6 hPa 0.2 mm 11.7°
1
56%
15:00
20°
1008.2 hPa 1.2 mm 12.3°
1
62%
21:00
16°
1007.8 hPa 1.4 mm 12.3°
1
76%
 05:15     21:42    Daglengte: 16:27 Zaterdag 07 Aug
03:00
13°
1007.8 hPa 0.3 mm 11.0°
1
63%
09:00
17°
1007.2 hPa 0.4 mm 12.6°
2
68%
15:00
22°
1006.7 hPa 0.6 mm 11.7°
2
69%
21:00
17°
1006.6 hPa 0.2 mm 12.1°
1
66%
 05:18     21:39    Daglengte: 16:21 Zondag 08 Aug
03:00
13°
1007.0 hPa 0.3 mm 10.6°
1
61%
09:00
16°
1006.6 hPa 0.8 mm 12.1°
2
66%
15:00
21°
1006.6 hPa 1.1 mm 12.0°
2
64%
21:00
17°
1007.0 hPa 1.2 mm 12.4°
1
69%
 05:20     21:37    Daglengte: 16:17 Maandag 09 Aug
03:00
13°
1007.5 hPa 0.6 mm 11.7°
1
69%
09:00
17°
1007.3 hPa 0.7 mm 12.9°
1
65%
15:00
21°
1007.4 hPa 1.9 mm 13.0°
1
67%
21:00
16°
1007.5 hPa 1.6 mm 12.9°
1
77%
 05:23     21:34    Daglengte: 16:11 Dinsdag 10 Aug
03:00
13°
1007.7 hPa 0.4 mm 11.6°
1
74%
09:00
16°
1007.4 hPa 1.0 mm 12.8°
1
70%
15:00
20°
1007.5 hPa 1.6 mm 13.1°
1
70%
  CAPE Lifted Index Hail Supercell Tornado SRH 3km CL BTM PRES CL TOP PRES Swiss DWD icon SMHI TS
 04:45     22:14    Daglengte: 17:29 Vandaag
17:00 70 J/kg -0.1 K 0 % 0 % 0 % 0 m²/s² 0 0 3.59 1
18:00 79 J/kg -0.2 K 0 % 0 % 0 % 0 m²/s² 0 0 3.58 1
19:00 74 J/kg -0.2 K 0 % 0 % 0 % 0 m²/s² 0 0 3.88 2
20:00 241 J/kg -0.8 K 0 % 0 % 0 % 0 m²/s² 0 0 3.19 2
21:00 214 J/kg -0.7 K 0 % 0 % 0 % 0 m²/s² 0 0 3.08 2
22:00 4 J/kg -0.6 K 0 % 0 % 0 % 0 m²/s² 0 0 3.3 1
23:00 0 J/kg -0.5 K 0 % 0 % 0 % 0 m²/s² 0 0 3.4 2
 04:48     22:12    Daglengte: 17:24 Morgen
00:00 0 J/kg 0.1 K 0 % 0 % 0 % 0 m²/s² 0 0 4.3 2
01:00 0 J/kg 1.4 K 0 % 0 % 0 % 0 m²/s² 0 0 6.05 1
02:00 0 J/kg 2.1 K 0 % 0 % 0 % 0 m²/s² 0 0 6.51 0
03:00 0 J/kg 1.9 K 0 % 0 % 0 % 0 m²/s² 0 0 6.19 0
04:00 0 J/kg 1.2 K 0 % 0 % 0 % 0 m²/s² 0 0 5.4 0
05:00 0 J/kg 0.6 K 0 % 0 % 0 % 0 m²/s² 0 0 4.59 0
06:00 0 J/kg 0.6 K 0 % 0 % 0 % 0 m²/s² 0 0 4.59 1
07:00 0 J/kg 1.2 K 0 % 0 % 0 % 0 m²/s² 0 0 4.98 3
08:00 0 J/kg 1.3 K 0 % 0 % 0 % 0 m²/s² 0 0 5.08 3
09:00 0 J/kg 0.8 K 0 % 0 % 0 % 0 m²/s² 0 0 4.61 3
10:00 22 J/kg -0.3 K 0 % 0 % 0 % 0 m²/s² 0 0 3.3 3
11:00 13 J/kg -0.2 K 0 % 0 % 0 % 0 m²/s² 0 0 3.49 3
12:00 45 J/kg -0.5 K 0 % 0 % 0 % 0 m²/s² 0 0 3.1 3
13:00 146 J/kg -1.0 K 0 % 0 % 0 % 0 m²/s² 0 0 2.51 3
14:00 145 J/kg -1.0 K 0 % 0 % 0 % 0 m²/s² 0 0 2.63 1
15:00 65 J/kg -0.6 K 0 % 0 % 0 % 0 m²/s² 0 0 2.73 1
16:00 4 J/kg 0.2 K 0 % 0 % 0 % 0 m²/s² 0 0 3.74 1
17:00 0 J/kg 0.3 K 0 % 0 % 0 % 0 m²/s² 0 0 4.23 1
18:00 4 J/kg 0.2 K 0 % 0 % 0 % 0 m²/s² 0 0 4.43 1
19:00 0 J/kg 0.2 K 0 % 0 % 0 % 0 m²/s² 0 0 4.43 1
20:00 6 J/kg 0.5 K 0 % 0 % 0 % 0 m²/s² 0 0 4.73 0
21:00 4 J/kg 0.8 K 0 % 0 % 0 % 0 m²/s² 0 0 5.15 0
22:00 0 J/kg 0.9 K 0 % 0 % 0 % 0 m²/s² 0 0 5.25 0
23:00 0 J/kg 0.8 K 0 % 0 % 0 % 0 m²/s² 0 0 5.39 1
 04:50     22:09    Daglengte: 17:19 Woensdag 28 Jul
00:00 0 J/kg -0.2 K 0 % 0 % 0 % 0 m²/s² 0 0 4.15 0
01:00 0 J/kg -0.4 K 0 % 0 % 0 % 0 m²/s² 0 0 3.95 3
02:00 0 J/kg -0.1 K 0 % 0 % 0 % 0 m²/s² 0 0 3.83 3
03:00 0 J/kg -0.9 K 0 % 0 % 0 % 0 m²/s² 0 0 3.24 3
04:00 0 J/kg -1.2 K 0 % 0 % 0 % 0 m²/s² 0 0 3.03 1
05:00 0 J/kg -1.1 K 0 % 0 % 0 % 0 m²/s² 0 0 2.83 1
06:00 0 J/kg -1.6 K 0 % 0 % 0 % 0 m²/s² 0 0 1.94 2
07:00 0 J/kg -2.3 K 0 % 0 % 0 % 0 m²/s² 0 0 -0.62 0
08:00 1 J/kg -2.0 K 0 % 0 % 0 % 0 m²/s² 0 0 -1.37 0
09:00 80 J/kg -1.4 K 0 % 0 % 0 % 0 m²/s² 0 0 -0.77 3
10:00 346 J/kg -1.8 K 0 % 0 % 0 % 0 m²/s² 0 0 -0.93 3
11:00 538 J/kg -2.7 K 0 % 0 % 0 % 0 m²/s² 0 0 -1.47 3
12:00 667 J/kg -3.0 K 0 % 0 % 0 % 0 m²/s² 0 0 -1.89 3
13:00 729 J/kg -3.1 K 0 % 0 % 0 % 0 m²/s² 0 0 -1.87 3
14:00 780 J/kg -3.2 K 0 % 0 % 0 % 0 m²/s² 0 0 -1.64 61
15:00 898 J/kg -3.3 K 0 % 0 % 0 % 0 m²/s² 0 0 -2.43 61
16:00 1015 J/kg -3.4 K 0 % 0 % 0 % 0 m²/s² 0 0 -3.19 61
17:00 1019 J/kg -3.6 K 0 % 0 % 0 % 0 m²/s² 0 0 -3.42 61
18:00 958 J/kg -3.3 K 0 % 0 % 0 % 0 m²/s² 0 0 -2.58 3
19:00 1102 J/kg -3.8 K 0 % 0 % 0 % 0 m²/s² 0 0 -3.08 3
20:00 902 J/kg -3.3 K 0 % 0 % 0 % 0 m²/s² 0 0 -2.58 80
21:00 617 J/kg -2.3 K 0 % 0 % 0 % 0 m²/s² 0 0 -1.85 3
22:00 471 J/kg -1.8 K 0 % 0 % 0 % 0 m²/s² 0 0 -0.84 3
23:00 551 J/kg -2.3 K 0 % 0 % 0 % 0 m²/s² 0 0 -2.12 3
 04:53     22:06    Daglengte: 17:13 Donderdag 29 Jul
00:00 546 J/kg -2.5 K 0 % 0 % 0 % 0 m²/s² 0 0 -2.29 3
01:00 574 J/kg -2.5 K 0 % 0 % 0 % 0 m²/s² 0 0 -2.38 3
02:00 527 J/kg -2.5 K 0 % 0 % 0 % 0 m²/s² 0 0 -2.5 3
03:00 473 J/kg -2.5 K 0 % 0 % 0 % 0 m²/s² 0 0 -2.38 2
04:00 559 J/kg -2.6 K 0 % 0 % 0 % 0 m²/s² 0 0 -2.21 2
05:00 503 J/kg -2.5 K 0 % 0 % 0 % 0 m²/s² 0 0 -1.63 2
06:00 318 J/kg -2.2 K 0 % 0 % 0 % 0 m²/s² 0 0 -0.1 2
07:00 334 J/kg -2.0 K 0 % 0 % 0 % 0 m²/s² 0 0 1.18 2
08:00 485 J/kg -2.1 K 0 % 0 % 0 % 0 m²/s² 0 0 0.81 3
09:00 721 J/kg -2.5 K 0 % 0 % 0 % 0 m²/s² 0 0 0.23 3
10:00 1002 J/kg -3.5 K 0 % 0 % 0 % 0 m²/s² 0 0 0.01 3
11:00 1335 J/kg -4.4 K 0 % 0 % 0 % 0 m²/s² 0 0 -1.49 3
12:00 1247 J/kg -4.2 K 0 % 0 % 0 % 0 m²/s² 0 0 -2.04 3
13:00 1012 J/kg -3.3 K 0 % 0 % 0 % 0 m²/s² 0 0 -0.99 3
14:00 966 J/kg -3.0 K 0 % 0 % 0 % 0 m²/s² 0 0 -1.62 2
15:00 523 J/kg -1.8 K 0 % 0 % 0 % 0 m²/s² 0 0 0.21 2
Temp Baro Wind Neerslag
  EWN Forecast EWN WRFDA DWD ICON FMI HIRLAM MET Norway GFS
 04:45     22:14    Daglengte: 17:29 Vandaag
18:00 29.0° 1018.6 hPa 1.7 m/s 0.0 mm 27.3° 1018.6 hPa 1.2 m/s 0.0 mm 29.1° 1018.5 hPa 1.9 m/s -2.0 mm 31.1° 1018.5 hPa 0.6 m/s 0.0 mm 29.4° 1018.0 hPa 0.9 m/s
21:00 25.5° 1018.5 hPa 1.2 m/s 0.0 mm 23.5° 1018.0 hPa 2.6 m/s 0.0 mm 26.6° 1018.2 hPa 1.0 m/s 0.0 mm 24.9° 1018.6 hPa 1.0 m/s 0.0 mm 24.5° 1018.5 hPa 2.4 m/s
 04:48     22:12    Daglengte: 17:24 Morgen
00:00 20.9° 1019.4 hPa 1.3 m/s 0.0 mm 17.0° 1018.8 hPa 2.9 m/s 0.0 mm 21.7° 1019.2 hPa 1.1 m/s 0.0 mm 18.3° 1019.5 hPa 1.1 m/s 0.0 mm 18.2° 1019.2 hPa 1.7 m/s
03:00 16.9° 1019.5 hPa 1.2 m/s 0.0 mm 14.8° 1019.2 hPa 1.9 m/s 0.0 mm 17.3° 1018.9 hPa 1.4 m/s 0.0 mm 14.3° 1019.6 hPa 0.9 m/s 0.0 mm 16.3° 1019.5 hPa 1.3 m/s
06:00 15.7° 1019.3 hPa 1.2 m/s 0.0 mm 16.3° 1018.7 hPa 2.1 m/s 0.0 mm 15.7° 1018.8 hPa 1.2 m/s 0.0 mm 13.2° 1019.5 hPa 0.8 m/s 0.0 mm 17.1° 1019.0 hPa 1.5 m/s
09:00 22.4° 1018.8 hPa 1.4 m/s 0.0 mm 22.7° 1018.1 hPa 2.6 m/s 0.0 mm 23.7° 1018.4 hPa 2.1 m/s 0.0 mm 21.7° 1019.0 hPa 0.6 m/s 0.0 mm 23.7° 1018.4 hPa 1.9 m/s
12:00 28.1° 1017.9 hPa 2.4 m/s 0.0 mm 26.1° 1017.3 hPa 4.2 m/s 0.0 mm 28.4° 1017.3 hPa 3.1 m/s 0.0 mm 29.2° 1018.0 hPa 1.1 m/s 0.0 mm 28.1° 1017.2 hPa 3.0 m/s
15:00 29.8° 1016.3 hPa 3.2 m/s 0.0 mm 26.7° 1016.2 hPa 4.5 m/s 0.0 mm 30.1° 1015.6 hPa 4.0 m/s 0.0 mm 31.0° 1016.4 hPa 1.9 m/s 0.0 mm 29.6° 1015.8 hPa 3.5 m/s
18:00 29.4° 1014.7 hPa 2.8 m/s 0.0 mm 26.7° 1014.8 hPa 4.7 m/s 0.0 mm 29.8° 1014.3 hPa 3.6 m/s 0.0 mm 30.5° 1014.7 hPa 2.0 m/s 0.0 mm 28.7° 1014.9 hPa 4.3 m/s
21:00 25.2° 1014.0 hPa 2.2 m/s 0.0 mm 22.1° 1013.4 hPa 2.5 m/s 0.0 mm 26.5° 1013.5 hPa 2.1 m/s 0.0 mm 24.2° 1014.1 hPa 1.3 m/s 0.0 mm 23.0° 1014.0 hPa 2.1 m/s
 04:50     22:09    Daglengte: 17:19 Woensdag 28 Jul
00:00 19.2° 1013.4 hPa 1.7 m/s 0.0 mm 18.4° 1013.0 hPa 3.4 m/s 0.0 mm 19.3° 1013.2 hPa 1.6 m/s 0.0 mm 16.3° 1013.7 hPa 1.1 m/s 0.0 mm 18.2° 1014.0 hPa 2.2 m/s
03:00 18.3° 1011.9 hPa 1.9 m/s 0.0 mm 17.7° 1010.9 hPa 4.1 m/s 0.0 mm 18.7° 1012.0 hPa 1.6 m/s 0.0 mm 13.8° 1012.7 hPa 1.1 m/s 0.0 mm 16.8° 1013.0 hPa 2.3 m/s
06:00 18.2° 1010.6 hPa 2.4 m/s 0.0 mm 18.9° 1009.4 hPa 4.2 m/s 0.0 mm 18.3° 1010.6 hPa 2.4 m/s 0.0 mm 14.3° 1011.7 hPa 1.3 m/s 0.0 mm 16.7° 1011.6 hPa 2.2 m/s
09:00 22.9° 1009.0 hPa 2.3 m/s 0.0 mm 23.3° 1008.0 hPa 4.8 m/s 0.0 mm 23.8° 1008.9 hPa 3.8 m/s 0.0 mm 21.7° 1010.2 hPa 1.7 m/s 0.0 mm 18.9° 1009.8 hPa 1.8 m/s
12:00 25.8° 1007.4 hPa 4.8 m/s 0.0 mm 26.4° 1006.7 hPa 6.2 m/s 0.0 mm 26.6° 1007.6 hPa 5.0 m/s 0.0 mm 19.3° 1008.9 hPa 3.4 m/s
15:00 23.3° 1006.3 hPa 4.1 m/s 0.0 mm 26.2° 1005.5 hPa 6.2 m/s 0.0 mm 23.9° 1006.9 hPa 4.0 m/s 0.1 mm 21.7° 1007.6 hPa 4.3 m/s
18:00 20.8° 1005.0 hPa 3.7 m/s 1.1 mm 23.8° 1004.8 hPa 4.6 m/s 0.6 mm 20.7° 1006.0 hPa 3.8 m/s 0.7 mm 17.0° 1006.1 hPa 4.0 m/s
21:00 19.4° 1003.8 hPa 2.6 m/s 2.1 mm 21.5° 1003.7 hPa 2.9 m/s 1.3 mm 19.2° 1004.9 hPa 2.7 m/s 0.8 mm 17.9° 1004.6 hPa 1.1 m/s
 04:53     22:06    Daglengte: 17:13 Donderdag 29 Jul
00:00 18.6° 1003.3 hPa 2.4 m/s 2.4 mm 19.2° 1003.4 hPa 2.8 m/s 3.8 mm 18.4° 1004.2 hPa 2.1 m/s 0.0 mm 16.8° 1004.0 hPa 1.7 m/s
03:00 18.4° 1002.0 hPa 3.2 m/s 7.5 mm 18.7° 1002.1 hPa 3.1 m/s 5.8 mm 18.0° 1003.0 hPa 2.2 m/s 0.0 mm 15.6° 1003.1 hPa 1.9 m/s
06:00 17.9° 1000.8 hPa 3.0 m/s 6.1 mm 18.3° 1000.7 hPa 2.7 m/s 7.6 mm 17.1° 1001.8 hPa 2.5 m/s 0.0 mm 15.4° 1002.1 hPa 1.9 m/s
09:00 18.6° 1000.3 hPa 3.4 m/s 3.7 mm 18.7° 1001.2 hPa 3.4 m/s 8.9 mm 19.5° 1000.3 hPa 3.4 m/s 0.0 mm 18.9° 1000.5 hPa 2.6 m/s
12:00 21.2° 999.3 hPa 4.1 m/s 2.4 mm 23.2° 999.9 hPa 4.1 m/s 9.8 mm 20.7° 999.1 hPa 4.1 m/s 0.4 mm 19.5° 1000.5 hPa 2.6 m/s
15:00 23.0° 997.8 hPa 4.1 m/s 4.8 mm 23.7° 999.9 hPa 4.2 m/s 14.0 mm 22.8° 997.3 hPa 4.1 m/s 0.2 mm 21.2° 1000.1 hPa 3.8 m/s
18:00 21.7° 998.9 hPa 2.5 m/s 11.0 mm 21.7° 998.9 hPa 2.5 m/s 11.0 mm
21:00 20.0° 998.4 hPa 4.0 m/s 11.1 mm 20.0° 998.4 hPa 4.0 m/s 11.1 mm
 04:55     22:04    Daglengte: 17:09 Vrijdag 30 Jul
00:00 16.7° 997.5 hPa 3.2 m/s 11.1 mm 16.7° 997.5 hPa 3.2 m/s 11.1 mm
03:00 15.3° 996.2 hPa 3.6 m/s 12.4 mm 15.3° 996.2 hPa 3.6 m/s 12.4 mm
06:00 13.1° 995.5 hPa 2.8 m/s 12.5 mm 13.1° 995.5 hPa 2.8 m/s 12.5 mm
09:00 15.7° 994.0 hPa 4.1 m/s 13.1 mm 15.7° 994.0 hPa 4.1 m/s 13.1 mm
12:00 17.0° 991.8 hPa 5.7 m/s 15.4 mm 17.0° 991.8 hPa 5.7 m/s 15.4 mm
15:00 19.2° 990.9 hPa 6.0 m/s 16.8 mm 19.2° 990.9 hPa 6.0 m/s 16.8 mm
18:00 13.8° 989.9 hPa 2.5 m/s 19.9 mm 13.8° 989.9 hPa 2.5 m/s 19.9 mm
21:00 13.6° 988.4 hPa 1.0 m/s 22.5 mm 13.6° 988.4 hPa 1.0 m/s 22.5 mm
 04:57     22:01    Daglengte: 17:04 Zaterdag 31 Jul
00:00 12.8° 988.8 hPa 3.7 m/s 31.8 mm 12.8° 988.8 hPa 3.7 m/s 31.8 mm
03:00 12.9° 990.6 hPa 5.1 m/s 37.8 mm 12.9° 990.6 hPa 5.1 m/s 37.8 mm
06:00 11.8° 992.6 hPa 3.7 m/s 37.8 mm 11.8° 992.6 hPa 3.7 m/s 37.8 mm
09:00 15.9° 993.8 hPa 4.0 m/s 37.8 mm 15.9° 993.8 hPa 4.0 m/s 37.8 mm
12:00 21.0° 994.9 hPa 3.6 m/s 37.8 mm 21.0° 994.9 hPa 3.6 m/s 37.8 mm
15:00 23.5° 995.6 hPa 3.5 m/s 37.8 mm 23.5° 995.6 hPa 3.5 m/s 37.8 mm
18:00 21.7° 996.9 hPa 2.5 m/s 37.8 mm 21.7° 996.9 hPa 2.5 m/s 37.8 mm
21:00 18.2° 998.3 hPa 2.8 m/s 37.8 mm 18.2° 998.3 hPa 2.8 m/s 37.8 mm
 05:00     21:59    Daglengte: 16:59 Zondag 01 Aug
00:00 12.8° 1000.0 hPa 2.2 m/s 37.8 mm 12.8° 1000.0 hPa 2.2 m/s 37.8 mm
03:00 11.8° 1000.6 hPa 1.7 m/s 37.8 mm 11.8° 1000.6 hPa 1.7 m/s 37.8 mm
06:00 11.9° 1000.6 hPa 1.6 m/s 37.8 mm 11.9° 1000.6 hPa 1.6 m/s 37.8 mm
09:00 17.6° 999.7 hPa 2.6 m/s 37.8 mm 17.6° 999.7 hPa 2.6 m/s 37.8 mm
12:00 21.0° 998.7 hPa 3.5 m/s 37.9 mm 21.0° 998.7 hPa 3.5 m/s 37.9 mm
15:00 15.0° 998.4 hPa 2.3 m/s 40.1 mm 15.0° 998.4 hPa 2.3 m/s 40.1 mm
18:00 15.7° 996.3 hPa 2.4 m/s 58.7 mm 15.7° 996.3 hPa 2.4 m/s 58.7 mm
21:00 15.5° 996.2 hPa 5.2 m/s 59.9 mm 15.5° 996.2 hPa 5.2 m/s 59.9 mm
 05:02     21:56    Daglengte: 16:54 Maandag 02 Aug
00:00 14.5° 997.4 hPa 4.6 m/s 60.1 mm 14.5° 997.4 hPa 4.6 m/s 60.1 mm
03:00 13.8° 998.3 hPa 3.0 m/s 60.2 mm 13.8° 998.3 hPa 3.0 m/s 60.2 mm
06:00 12.6° 999.0 hPa 2.0 m/s 60.2 mm 12.6° 999.0 hPa 2.0 m/s 60.2 mm
09:00 16.7° 999.1 hPa 3.0 m/s 60.2 mm 16.7° 999.1 hPa 3.0 m/s 60.2 mm
12:00 20.4° 999.0 hPa 3.2 m/s 60.2 mm 20.4° 999.0 hPa 3.2 m/s 60.2 mm
15:00 19.6° 998.5 hPa 3.0 m/s 60.9 mm 19.6° 998.5 hPa 3.0 m/s 60.9 mm
21:00 15.3° 997.4 hPa 1.6 m/s 62.9 mm 15.3° 997.4 hPa 1.6 m/s 62.9 mm
 05:05     21:53    Daglengte: 16:48 Dinsdag 03 Aug
03:00 11.2° 997.0 hPa 1.7 m/s 62.9 mm 11.2° 997.0 hPa 1.7 m/s 62.9 mm
09:00 15.5° 996.7 hPa 3.1 m/s 62.9 mm 15.5° 996.7 hPa 3.1 m/s 62.9 mm
15:00 19.0° 999.6 hPa 5.4 m/s 63.2 mm 19.0° 999.7 hPa 5.4 m/s 63.2 mm
21:00 13.6° 1001.2 hPa 2.2 m/s 63.4 mm 13.6° 1001.2 hPa 2.2 m/s 63.4 mm
 05:07     21:51    Daglengte: 16:44 Woensdag 04 Aug
03:00 10.1° 1001.8 hPa 4.5 m/s 63.6 mm 10.1° 1001.8 hPa 4.5 m/s 63.6 mm
09:00 14.4° 1003.9 hPa 4.3 m/s 63.6 mm 14.4° 1003.9 hPa 4.3 m/s 63.6 mm
15:00 19.0° 1003.9 hPa 6.3 m/s 65.1 mm 19.0° 1003.9 hPa 6.3 m/s 65.1 mm
21:00 14.4° 1005.7 hPa 2.6 m/s 65.1 mm 14.4° 1005.7 hPa 2.6 m/s 65.1 mm
 05:10     21:48    Daglengte: 16:38 Donderdag 05 Aug
03:00 13.3° 1004.1 hPa 2.2 m/s 66.0 mm 13.3° 1004.1 hPa 2.2 m/s 66.0 mm
09:00 16.5° 1001.8 hPa 3.3 m/s 77.2 mm 16.5° 1001.8 hPa 3.3 m/s 77.2 mm
15:00 19.3° 1008.5 hPa 1.1 m/s 2.4 mm
21:00 15.7° 1008.4 hPa 0.6 m/s 1.4 mm
 05:13     21:45    Daglengte: 16:32 Vrijdag 06 Aug
03:00 11.8° 1008.9 hPa 0.9 m/s 0.4 mm
09:00 16.1° 1008.6 hPa 1.5 m/s 0.2 mm
15:00 20.2° 1008.2 hPa 1.3 m/s 1.2 mm
21:00 16.5° 1007.8 hPa 0.6 m/s 1.4 mm
 05:15     21:42    Daglengte: 16:27 Zaterdag 07 Aug
03:00 13.0° 1007.8 hPa 0.8 m/s 0.3 mm
09:00 16.6° 1007.2 hPa 1.6 m/s 0.4 mm
15:00 22.0° 1006.7 hPa 1.9 m/s 0.6 mm
21:00 17.1° 1006.6 hPa 1.0 m/s 0.2 mm
 05:18     21:39    Daglengte: 16:21 Zondag 08 Aug
03:00 13.3° 1007.0 hPa 1.0 m/s 0.3 mm
09:00 16.5° 1006.6 hPa 1.6 m/s 0.8 mm
15:00 21.4° 1006.6 hPa 2.0 m/s 1.1 mm
21:00 17.0° 1007.0 hPa 0.8 m/s 1.2 mm
 05:20     21:37    Daglengte: 16:17 Maandag 09 Aug
03:00 13.4° 1007.5 hPa 1.2 m/s 0.6 mm
09:00 16.7° 1007.3 hPa 1.3 m/s 0.7 mm
15:00 20.7° 1007.4 hPa 1.3 m/s 1.9 mm
21:00 16.5° 1007.5 hPa 0.6 m/s 1.6 mm
 05:23     21:34    Daglengte: 16:11 Dinsdag 10 Aug
03:00 13.4° 1007.7 hPa 0.6 m/s 0.4 mm
09:00 16.3° 1007.4 hPa 0.5 m/s 1.0 mm
15:00 19.8° 1007.5 hPa 1.0 m/s 1.6 mm
FMI Hirlam - 7.5 km EWN WRFDA - 12 km DWD ICON - 7 km GFS - 25 km Basiskaart






























































Updatetijd (Europe/Amsterdam) Resolutie Lengte Stap
FMI Hirlam 14:00, 20:00, 02:00, 08:00 7.5 km 49h 1h
EWN WRFDA 10:30, 16:30, 22:30, 04:30 12 km 73h 1h
DWD ICON 11:45, 17:45, 23:45, 05:45 7 km 75h 1h
GFS 14:15, 20:15, 02:15, 08:15 25 km 237h 3h
30+ mm
25-30 mm
20-25 mm
15-20 mm
10-15 mm
6-10 mm
4-6 mm
2-4 mm
1-2 mm
0.5-1 mm
0.2-0.5 mm
0.1-0.2 mm
30+ mm
25-30 mm
20-25 mm
15-20 mm
10-15 mm
6-10 mm
4-6 mm
2-4 mm
1-2 mm
0.5-1 mm
0.2-0.5 mm
0.1-0.2 mm
Sneeuwval
Natte sneeuw
Hagel
Vorst
30+ mm
25-30 mm
20-25 mm
15-20 mm
10-15 mm
6-10 mm
4-6 mm
2-4 mm
1-2 mm
0.5-1 mm
0.2-0.5 mm
0.1-0.2 mm
Sneeuwval
Natte sneeuw
Hagel
Vorst
Onweer
50 mm
40 mm
30 mm
26 mm
22 mm
18 mm
14 mm
10 mm
9 mm
8 mm
7 mm
6 mm
5 mm
4.5 mm
4 mm
3.5 mm
3 mm
2.5 mm
2 mm
1.5 mm
1 mm
0.8 mm
0.6 mm
0.4 mm
0.2 mm
0.05 mm
35°
30°
25°
20°
15°
10°
-5°
-10°
-15°
-20°
-25°
-30°
-35°
33> m/s
29 m/s
25 m/s
21 m/s
17 m/s
14 m/s
11 m/s
8 m/s
5 m/s
3 m/s
0 m/s
2600 J/kg
2400 J/kg
2200 J/kg
2000 J/kg
1800 J/kg
1600 J/kg
1400 J/kg
1200 J/kg
1000 J/kg
800 J/kg
600 J/kg
400 J/kg
200 J/kg
70 dBZ
65 dBZ
60 dBZ
55 dBZ
50 dBZ
45 dBZ
40 dBZ
35 dBZ
30 dBZ
25 dBZ
20 dBZ
15 dBZ
10 dBZ
5 dBZ
-1 K
-2 K
-3 K
-4 K
-5 K
-6 K
-7 K
-8 K
-9 K
950 m²/s²
900 m²/s²
850 m²/s²
800 m²/s²
750 m²/s²
700 m²/s²
650 m²/s²
600 m²/s²
550 m²/s²
500 m²/s²
450 m²/s²
400 m²/s²
350 m²/s²
300 m²/s²
250 m²/s²
200 m²/s²
150 m²/s²
100 m²/s²
46 m/s
44 m/s
42 m/s
40 m/s
38 m/s
36 m/s
34 m/s
32 m/s
30 m/s
28 m/s
26 m/s
24 m/s
22 m/s
20 m/s
16 m/s
12 m/s
8 m/s
4 m/s
30 m/s
28 m/s
26 m/s
24 m/s
22 m/s
20 m/s
18 m/s
16 m/s
14 m/s
12 m/s
10 m/s
8 m/s
6 m/s
4 m/s
2 m/s
3.0
2.8
2.6
2.4
2.2
2.0
1.8
1.6
1.4
1.2
1.0
0.8
0.6
0.4
0.2
15
14
13
12
11
10
9
8
7
6
5
4
3
2
1
90%
80%
70%
60%
50%
40%
30%
20%
10%
42
40
38
36
34
32
30
28
26